Pagina principale
METAR-TAF:

METAR-TAF

Aeroporti :

Winchester, Tennessee, Stati Uniti

latitudine: 35-10-39N, longitudine: 086-03-58W, altezza: 298 m

Osservazione

Il bollettino è stato emesso 21 minuti fa, alle 23:35 UTC
Vento 3 kt da nord
Temperature 18°C
Umidità 42%
Pressione 1019 hPa
Visibilità: 16.1 km
Nubi sparse ad un'altezza di 11000 ft

METAR: KBGF 242335Z AUTO 36003KT 10SM SCT110 18/05 A3010 RMK A01

Ora: 18:56 (23:56 UTC)


TAF: mancante

Osservazioni e previsioni meteorologiche di più di 4000 aeroporti (messaggi METAR e TAF).

Le stazioni disponibili sono rappresentate dai dischi gialli e rossi sulla carta.

Puntare il mouse per vedere il nome della stazione.

Clicca sopra per visualizzare le osservazioni e previsioni meteorologiche.

Per cambiare la mappa : fare clic sui pulsanti verdi con una croce nera per ingrandire, il pulsante verde con un trattino per diminuire, o sulla freccia verde per le mappe adiacenti.


METAR-TAF: